ONEWEB-0678, 56714

Orbit data source: Space-Track

ONEWEB-0678, 56714 is a payload satellite owned by One Web (NAA) (UK) in LEO that was launched on Sat, 20 May 2023 UTC via an FALCON 9 launch vehicle from the Air Force Western Test Range (AFWTR). Payloads include a variety of satellites, spacecraft, and rockets equipped with specific instruments for various scientific and technological missions. These include communications satellites like Starlink; space stations such as the ISS; scientific satellites like the Hubble; Earth observation satellites from companies like Planet Labs, Umbra, and HawkEye 360; GPS; miniature CubeSats for education and research; and military/defense satellites.

Loading next visibility...
ONEWEB-0678 details
Identifier
56714, 2023-068E
Orbit
LEO
Last TLE update16 hours ago
Origin
Flag of UKOne Web (NAA) (UK)
ManufacturerOne Web
MissionOperational Commercial Communications
Bus & MotorARROW, Unknown motor
Mass148 kg wet, ~140 kg dry
Launch date (UTC)
2023-05-20 (2 years ago)
Launch vehicle
FALCON 9
Launch site
Air Force Western Test Range (AFWTR)
Object type
Payload
Rocket body
Debris
Shape & HBRTrap Box + 2 Pan, 5 m
Radar Cross Section2.032 m², Large (>1 m²)

Expand to show TLE details & history

TLE from 16 hours ago
0 ONEWEB-0678
1 56714U 23068E   25014.98141067 -.00000142  00000-0 -40994-3 0  9998
2 56714  87.9080   2.3493 0001523  94.6315 265.4990 13.15546815 81853
Epoch: 2025-01-14T23:33Z
Definitive object data (Epoch: 2025-01-14T23:33:13.881Z)
Latitude0.00003°
Longitude-105.63885°
Altitude1,204.764 km
Speed7.252 km/s
True Right ascension00h 09m 23s
True Declination0° 00' 00"
Sunlit
Object was in daylight at TLE epoch
Visualization TLE readout
Latitude-86.77735°
Longitude114.43138°
Altitude1,231.721 km
Speed7.238 km/s
Apparent Right ascension04h 19m 16s
Apparent Declination-68° 52' 42"
Sunlit
Object is in daylight
Visualization observer readout
Local Sidereal Time16:11:37
Azimuth181.422° SSW
Elevation-61.019°
Doppler factor1
Orbital elements
Apogee altitude1,200.043 km
Perigee altitude1,197.735 km
Semi-major axis7,577.026 km
Eccentricity0.0001523
Inclination87.908°
RAAN2.3493°
Arg. of periapsis94.6315°
True anomaly265.4816°
Mean anomaly265.499°
Eccentric anomaly265.4903°
Mean motion3.29075 °/min
BSTAR-0.00040994
Orbital period109.4 mins
Loading maneuver chart data...
Loading historical data...
Loading historical data...
Loading historical data...
Loading historical data...
Loading historical data...
Loading historical data...
Loading historical data...

ONEWEB-0678 Visibility forecast

Observer location: undefined°, undefined

Span
Click to sort rows by Start time (UTC) header in descending order
Start Az.
Max El. time (UTC)
Max El. Az.
Max El.
End time (UTC)
End Az.
6 mins2025-01-15 21:37:45.623Z95.907° ESE2025-01-15 21:40:45.623Z70.619° E13.317°2025-01-15 21:43:45.623Z45.315° ENE
12 mins2025-01-15 23:23:45.623Z175.369° S2025-01-15 23:28:45.623Z145.995° SSE44.604°2025-01-15 23:35:45.623Z1.968° NNE
7 mins2025-01-16 01:16:45.623Z261.679° W2025-01-16 01:19:45.623Z289.011° WNW15.468°2025-01-16 01:23:45.623Z323.106° NNW
13 mins2025-01-16 10:50:45.623Z7.205° NNE2025-01-16 10:56:45.623Z89.971° E42.488°2025-01-16 11:03:45.623Z169.194° S
8 mins2025-01-16 12:41:45.623Z321.995° NNW2025-01-16 12:45:45.623Z282.692° WNW20.147°2025-01-16 12:49:45.623Z245.179° WSW
|